SQ5VCO-13 Weather Reports


Display with metric or nautical units.
time (UTC)temp
F
wind
direction
speed
MPH
gust
MPH
rain 1hr
in
rain 24hr
in
rain mn
in
humidity
%
barometer
mb
20260905231503 55 249 0.0 2.0 0.00 0.12 0.00 86 1012.7
20260905231005 55 0 0.0 0.0 0.00 0.12 0.00 85 1012.7
20260905230503 55 236 0.0 2.0 0.00 0.12 0.00 85 1012.9
20260905230004 55 236 0.0 2.0 0.00 0.12 0.00 85 1012.8
20260905225504 55 270 0.0 1.0 0.00 0.12 0.00 85 1012.8
20260905225216 55 270 0.0 1.0 0.00 0.12 0.00 85 1012.7
20260905224714 55 315 0.0 1.0 0.00 0.12 0.00 85 1012.7
20260905224004 55 0 0.0 0.0 0.00 0.12 0.00 85 1012.4
20260905223503 55 283 1.0 6.0 0.00 0.12 0.00 85 1012.4
20260905223003 55 281 1.0 6.0 0.00 0.12 0.00 86 1012.6
20260905222504 55 280 1.0 4.0 0.00 0.12 0.00 86 1012.5
20260905222214 55 276 0.0 4.0 0.00 0.12 0.00 86 1012.4
20260905221504 55 0 0.0 0.0 0.00 0.12 0.00 86 1012.7
20260905221004 55 0 0.0 0.0 0.00 0.12 0.00 86 1012.6
20260905220503 55 251 0.0 1.0 0.00 0.12 0.00 86 1012.5
20260905220003 55 260 0.0 1.0 0.00 0.12 0.00 86 1012.5
20260905215504 55 278 2.0 10.0 0.00 0.12 0.12 87 1012.4
20260905215004 55 279 2.0 10.0 0.00 0.12 0.12 87 1012.4
20260905214715 55 273 2.0 10.0 0.00 0.12 0.12 87 1012.7
20260905214004 55 192 0.0 3.0 0.00 0.12 0.12 87 1012.6
20260905213504 55 0 0.0 0.0 0.00 0.12 0.12 88 1012.3
20260905213214 55 0 0.0 0.0 0.00 0.12 0.12 88 1012.4
20260905212504 55 245 0.0 1.0 0.01 0.12 0.12 88 1012.4
20260905212003 56 0 0.0 0.0 0.01 0.12 0.12 88 1012.5
20260905211503 56 0 0.0 0.0 0.01 0.12 0.12 88 1012.3
20260905211003 56 0 0.0 0.0 0.01 0.12 0.12 88 1012.3
20260905210503 56 0 0.0 0.0 0.02 0.12 0.12 88 1012.2
20260905210004 56 0 0.0 0.0 0.02 0.12 0.12 88 1012.4
20260905205715 56 0 0.0 0.0 0.02 0.12 0.12 88 1012.3
20260905205004 56 292 0.0 1.0 0.02 0.12 0.12 88 1012.3
20260905204503 56 292 0.0 1.0 0.02 0.12 0.12 88 1012.2
20260905204003 56 270 0.0 1.0 0.02 0.12 0.12 88 1012.0
20260905203503 56 270 0.0 1.0 0.02 0.12 0.12 87 1012.2
20260905203004 56 270 0.0 1.0 0.01 0.11 0.11 87 1012.1
20260905202503 56 247 0.0 1.0 0.01 0.11 0.11 87 1012.2
20260905202215 56 247 0.0 1.0 0.01 0.11 0.11 87 1012.1
20260905201504 56 0 0.0 0.0 0.01 0.11 0.11 87 1012.1
20260905201004 56 0 0.0 0.0 0.01 0.11 0.11 87 1012.2
20260905200503 55 0 0.0 0.0 0.00 0.09 0.09 86 1012.2
20260905200004 55 0 0.0 0.0 0.00 0.09 0.09 86 1012.1
20260905195503 55 0 0.0 0.0 0.00 0.09 0.09 85 1012.1
20260905195004 55 0 0.0 0.0 0.00 0.09 0.09 85 1011.9
20260905194716 54 0 0.0 0.0 0.00 0.09 0.09 84 1011.8
20260905194214 54 0 0.0 0.0 0.00 0.09 0.09 84 1011.7
20260905193717 54 0 0.0 0.0 0.00 0.09 0.09 88 1011.9
20260905193004 54 0 0.0 0.0 0.00 0.12 0.09 84 1012.0
20260905192713 54 0 0.0 0.0 0.00 0.12 0.09 84 1011.9
20260905192004 55 0 0.0 0.0 0.00 0.12 0.09 84 1012.0
20260905191503 55 0 0.0 0.0 0.00 0.12 0.09 84 1012.0
20260905191003 55 0 0.0 0.0 0.00 0.12 0.09 84 1012.1
20260905190715 55 0 0.0 0.0 0.00 0.12 0.09 83 1012.0
20260905190004 55 0 0.0 0.0 0.00 0.12 0.09 83 1012.0
20260905185504 55 0 0.0 0.0 0.01 0.12 0.09 83 1012.3
20260905185004 55 0 0.0 0.0 0.01 0.12 0.09 83 1012.2
20260905184717 55 0 0.0 0.0 0.01 0.12 0.09 83 1012.4
20260905184004 55 0 0.0 0.0 0.01 0.12 0.09 83 1012.2
20260905183503 55 0 0.0 0.0 0.02 0.12 0.09 83 1012.1
20260905183003 55 0 0.0 0.0 0.02 0.12 0.09 83 1012.1
20260905182504 55 0 0.0 0.0 0.02 0.12 0.09 83 1012.4
20260905182004 55 0 0.0 0.0 0.02 0.12 0.09 83 1012.2
20260905181504 56 0 0.0 0.0 0.02 0.12 0.09 83 1012.3
20260905181004 56 0 0.0 0.0 0.02 0.12 0.09 83 1012.2
20260905180504 56 0 0.0 0.0 0.02 0.12 0.09 83 1012.3
20260905180004 56 0 0.0 0.0 0.02 0.12 0.09 83 1012.4
20260905175503 56 0 0.0 0.0 0.01 0.11 0.08 82 1012.6
20260905175003 56 0 0.0 0.0 0.01 0.11 0.08 82 1012.5
20260905174503 56 0 0.0 0.0 0.01 0.11 0.08 81 1012.5
20260905174004 56 0 0.0 0.0 0.02 0.11 0.08 81 1012.5
20260905173504 56 270 0.0 1.0 0.01 0.09 0.07 80 1012.4
20260905173216 56 270 0.0 1.0 0.01 0.09 0.07 80 1012.2
20260905172504 56 0 0.0 0.0 0.01 0.09 0.07 79 1012.2
20260905172004 56 0 0.0 0.0 0.01 0.09 0.07 79 1012.1
20260905171503 56 0 0.0 0.0 0.01 0.09 0.07 78 1012.1
20260905171004 56 0 0.0 0.0 0.01 0.09 0.07 77 1012.0
20260905170716 56 0 0.0 0.0 0.01 0.09 0.07 77 1012.0
20260905170005 56 0 0.0 0.0 0.02 0.09 0.07 76 1012.2
20260905165504 56 0 0.0 0.0 0.02 0.09 0.07 76 1012.2
20260905165215 57 0 0.0 0.0 0.02 0.09 0.07 75 1012.2
20260905164503 57 0 0.0 0.0 0.04 0.09 0.07 75 1012.3
20260905164003 57 0 0.0 0.0 0.02 0.08 0.06 74 1012.1
20260905163503 58 0 0.0 0.0 0.02 0.08 0.06 74 1012.6
20260905163003 58 0 0.0 0.0 0.02 0.08 0.06 73 1012.1
20260905162504 58 0 0.0 0.0 0.02 0.08 0.06 72 1011.8
20260905162004 58 0 0.0 0.0 0.02 0.08 0.06 71 1011.7
20260905161504 58 0 0.0 0.0 0.02 0.08 0.06 70 1011.7
20260905161004 59 0 0.0 0.0 0.02 0.08 0.06 69 1012.0
20260905160503 60 0 0.0 0.0 0.01 0.07 0.05 65 1011.8
20260905160003 60 0 0.0 0.0 0.01 0.07 0.05 65 1011.8
20260905155713 60 0 0.0 0.0 0.01 0.07 0.05 63 1011.8
20260905155003 62 307 0.0 1.0 0.01 0.07 0.05 60 1011.9
20260905154504 64 303 0.0 1.0 0.00 0.06 0.04 53 1012.1
20260905154217 65 303 0.0 1.0 0.00 0.06 0.04 51 1011.8
20260905153504 67 0 0.0 0.0 0.00 0.06 0.04 50 1011.4
20260905153004 67 270 0.0 1.0 0.00 0.06 0.04 50 1010.9
20260905152504 67 270 0.0 1.0 0.00 0.06 0.04 49 1010.9
20260905152003 68 0 0.0 0.0 0.00 0.06 0.04 47 1010.8
20260905151503 68 225 0.0 1.0 0.00 0.06 0.04 46 1010.8
20260905151003 69 225 0.0 1.0 0.00 0.06 0.04 44 1010.7
20260905150504 70 225 0.0 1.0 0.00 0.06 0.04 44 1010.7
20260905150004 71 270 0.0 1.0 0.00 0.06 0.04 44 1010.7
20260905145504 71 270 0.0 1.0 0.00 0.06 0.04 44 1010.7
20260905145004 71 277 0.0 1.0 0.00 0.06 0.04 44 1010.8
20260905144503 71 281 0.0 1.0 0.00 0.06 0.04 44 1010.8
20260905144003 71 292 0.0 1.0 0.00 0.06 0.04 44 1010.8
20260905143715 71 0 0.0 0.0 0.00 0.06 0.04 43 1010.9
20260905143003 71 278 2.0 9.0 0.00 0.06 0.04 42 1011.1
20260905142503 71 278 2.0 9.0 0.00 0.06 0.04 43 1011.0
20260905142004 71 0 0.0 0.0 0.00 0.06 0.04 43 1010.9
20260905141504 71 0 0.0 0.0 0.00 0.06 0.04 43 1010.9
20260905141004 71 0 0.0 0.0 0.00 0.06 0.04 43 1010.5
20260905140713 71 0 0.0 0.0 0.00 0.06 0.04 44 1010.8
20260905140004 72 0 0.0 0.0 0.00 0.06 0.04 41 1010.8
20260905135503 72 0 0.0 0.0 0.00 0.06 0.04 42 1010.8
20260905135003 72 240 0.0 1.0 0.00 0.06 0.04 41 1010.8
20260905134503 72 247 0.0 1.0 0.00 0.06 0.04 40 1010.5
20260905134004 72 270 0.0 1.0 0.00 0.06 0.04 40 1010.5
20260905133504 72 0 0.0 0.0 0.00 0.06 0.04 41 1010.4
20260905133004 72 0 0.0 0.0 0.00 0.06 0.04 42 1010.4
20260905132503 72 0 0.0 0.0 0.00 0.06 0.04 42 1010.5
20260905132004 71 0 0.0 0.0 0.00 0.06 0.04 44 1010.3
20260905131503 71 0 0.0 0.0 0.00 0.06 0.04 42 1010.4
20260905131003 72 0 0.0 0.0 0.00 0.06 0.04 42 1010.5
20260905130503 72 0 0.0 0.0 0.00 0.06 0.04 44 1010.5
20260905130004 71 0 0.0 0.0 0.00 0.06 0.04 45 1010.4
20260905125715 71 0 0.0 0.0 0.00 0.06 0.04 45 1010.3
20260905125004 69 0 0.0 0.0 0.00 0.06 0.04 47 1010.4
20260905124504 69 0 0.0 0.0 0.00 0.06 0.04 44 1010.5
20260905124003 69 292 0.0 1.0 0.00 0.06 0.04 42 1010.5
20260905123717 70 266 0.0 1.0 0.00 0.06 0.04 42 1010.5
20260905123003 71 289 3.0 13.0 0.00 0.06 0.04 43 1010.3
20260905122718 71 288 3.0 13.0 0.00 0.06 0.04 43 1010.4
20260905122004 70 270 0.0 2.0 0.00 0.06 0.04 46 1010.4
20260905121713 70 270 0.0 1.0 0.00 0.06 0.04 45 1010.5
20260905121004 70 0 0.0 0.0 0.00 0.06 0.04 43 1010.4
20260905120503 71 0 0.0 0.0 0.00 0.06 0.04 42 1010.4
20260905120003 71 315 0.0 1.0 0.00 0.06 0.04 42 1010.5
20260905115503 71 295 0.0 1.0 0.00 0.06 0.04 43 1010.4
20260905115003 69 270 0.0 1.0 0.00 0.06 0.04 46 1010.5
20260905114503 69 0 0.0 0.0 0.00 0.06 0.04 46 1010.4
20260905114214 69 0 0.0 0.0 0.00 0.06 0.04 45 1010.3
20260905113504 71 0 0.0 0.0 0.00 0.06 0.04 43 1010.5
20260905113004 72 270 0.0 1.0 0.00 0.06 0.04 45 1010.3
20260905112504 71 270 0.0 1.0 0.00 0.06 0.04 50 1010.2
20260905112003 69 0 0.0 0.0 0.00 0.06 0.04 50 1010.2
20260905111503 69 0 0.0 0.0 0.00 0.06 0.04 49 1010.2
20260905111217 69 0 0.0 0.0 0.00 0.06 0.04 47 1010.3
20260905110503 70 0 0.0 0.0 0.00 0.06 0.04 46 1010.3
20260905110213 70 0 0.0 0.0 0.00 0.06 0.04 47 1010.3
20260905105504 68 270 0.0 1.0 0.00 0.06 0.04 50 1010.2
20260905105004 68 315 0.0 1.0 0.00 0.06 0.04 46 1010.3
20260905104504 69 321 0.0 1.0 0.00 0.06 0.04 46 1010.1
20260905104004 69 270 0.0 1.0 0.00 0.06 0.04 50 1010.0
20260905103503 69 292 0.0 1.0 0.00 0.06 0.04 51 1010.0
20260905103004 68 284 0.0 1.0 0.00 0.06 0.04 50 1010.0
20260905102503 68 270 0.0 1.0 0.00 0.06 0.04 50 1009.8
20260905102003 69 0 0.0 0.0 0.00 0.06 0.04 50 1009.9
20260905101504 69 270 1.0 5.0 0.00 0.06 0.04 51 1009.9
20260905101004 68 270 4.0 5.0 0.00 0.06 0.04 53 1010.0
20260905100504 67 270 4.0 13.0 0.00 0.06 0.04 53 1009.7
20260905100004 67 270 1.0 13.0 0.00 0.06 0.04 53 1009.9
20260905095504 66 0 0.0 0.0 0.00 0.06 0.04 52 1009.6
20260905095004 66 0 0.0 0.0 0.00 0.06 0.04 53 1009.8
20260905094718 66 0 0.0 0.0 0.00 0.06 0.04 52 1009.7
20260905094003 67 0 0.0 0.0 0.00 0.06 0.04 51 1009.8
20260905093503 67 270 0.0 1.0 0.00 0.06 0.04 50 1009.5
20260905093003 68 270 0.0 1.0 0.00 0.06 0.04 50 1009.6
20260905092504 68 225 0.0 1.0 0.00 0.06 0.04 51 1009.6
20260905092004 67 225 0.0 1.0 0.00 0.06 0.04 52 1009.3
20260905091503 66 247 0.0 1.0 0.00 0.06 0.04 52 1009.4
20260905091004 65 247 0.0 1.0 0.00 0.06 0.04 54 1009.5
20260905090503 65 0 0.0 0.0 0.00 0.06 0.04 55 1009.3
20260905090003 65 270 0.0 1.0 0.00 0.06 0.04 56 1009.3
20260905085504 66 270 0.0 1.0 0.00 0.06 0.04 54 1009.4
20260905085004 66 270 0.0 1.0 0.00 0.06 0.04 56 1009.1
20260905084504 67 257 0.0 1.0 0.00 0.06 0.04 53 1009.3
20260905084004 67 250 0.0 1.0 0.00 0.06 0.04 55 1009.2
20260905083503 67 0 0.0 0.0 0.00 0.06 0.04 56 1009.2
20260905083005 67 0 0.0 0.0 0.00 0.06 0.04 60 1009.2
20260905082503 66 0 0.0 0.0 0.00 0.06 0.04 61 1009.2
20260905082005 65 270 0.0 1.0 0.00 0.06 0.04 62 1009.0
20260905081504 64 270 0.0 1.0 0.00 0.06 0.04 62 1009.1
20260905081004 64 0 0.0 0.0 0.00 0.06 0.04 61 1008.8
20260905080504 64 0 0.0 0.0 0.00 0.06 0.04 61 1009.0
20260905080215 64 0 0.0 0.0 0.00 0.06 0.04 61 1009.0
20260905075503 64 0 0.0 0.0 0.00 0.06 0.04 61 1008.8
20260905075003 64 0 0.0 0.0 0.00 0.06 0.04 62 1009.0
20260905074504 64 225 0.0 1.0 0.00 0.06 0.04 62 1008.9
20260905074004 63 225 0.0 1.0 0.00 0.06 0.04 67 1008.6
20260905073504 63 225 0.0 1.0 0.00 0.06 0.04 67 1008.7
20260905073218 62 225 0.0 1.0 0.00 0.06 0.04 67 1008.6
20260905072504 62 258 0.0 1.0 0.00 0.06 0.04 67 1008.5
20260905072003 62 270 0.0 1.0 0.00 0.06 0.04 68 1008.7
20260905071716 62 270 0.0 1.0 0.00 0.06 0.04 68 1008.7
20260905071003 62 270 0.0 1.0 0.00 0.06 0.04 69 1008.8
20260905070504 62 270 0.0 1.0 0.00 0.06 0.04 69 1008.6
20260905070004 62 270 0.0 1.0 0.00 0.06 0.04 69 1008.6
20260905065503 62 270 0.0 1.0 0.00 0.06 0.04 70 1008.3
20260905065216 62 247 0.0 1.0 0.00 0.06 0.04 70 1008.2
20260905064714 62 247 0.0 1.0 0.00 0.06 0.04 70 1008.1
20260905064003 62 225 0.0 1.0 0.00 0.06 0.04 70 1008.3
20260905063504 62 225 0.0 1.0 0.00 0.06 0.04 70 1008.3
20260905063004 62 0 0.0 0.0 0.00 0.06 0.04 70 1007.9
20260905062504 62 270 0.0 1.0 0.00 0.06 0.04 70 1007.9
20260905062004 62 270 0.0 1.0 0.00 0.06 0.04 70 1007.9
20260905061503 62 0 0.0 0.0 0.00 0.06 0.04 69 1007.9
20260905061003 62 0 0.0 0.0 0.00 0.06 0.04 69 1007.8
20260905060503 61 0 0.0 0.0 0.00 0.06 0.04 69 1007.9
20260905060004 61 245 0.0 1.0 0.00 0.06 0.04 69 1007.8
20260905055504 61 245 0.0 1.0 0.00 0.06 0.04 68 1007.6
20260905055004 61 0 0.0 0.0 0.00 0.06 0.04 70 1007.7
20260905054504 61 0 0.0 0.0 0.00 0.06 0.04 69 1007.7
20260905054004 61 270 0.0 1.0 0.00 0.06 0.04 69 1007.5
20260905053503 61 270 0.0 1.0 0.00 0.06 0.04 69 1007.4
20260905053003 61 0 0.0 0.0 0.00 0.06 0.04 69 1007.2
20260905052503 61 0 0.0 0.0 0.00 0.06 0.04 69 1007.2
20260905052215 61 0 0.0 0.0 0.00 0.06 0.04 68 1007.1
20260905051504 61 0 0.0 0.0 0.00 0.06 0.04 68 1007.1
20260905051216 61 0 0.0 0.0 0.00 0.06 0.04 68 1007.0
20260905050503 61 0 0.0 0.0 0.00 0.06 0.04 68 1006.9
20260905050003 61 292 0.0 1.0 0.00 0.06 0.04 68 1006.9
20260905045503 61 292 0.0 1.0 0.00 0.06 0.04 68 1007.0
20260905045005 61 270 0.0 1.0 0.00 0.06 0.04 67 1006.7
20260905044504 61 270 0.0 1.0 0.00 0.06 0.04 67 1006.7
20260905044004 61 281 0.0 1.0 0.00 0.06 0.04 67 1006.7
20260905043504 61 280 0.0 1.0 0.00 0.06 0.04 68 1006.5
20260905043004 61 270 0.0 1.0 0.00 0.06 0.04 68 1006.3
20260905042503 61 225 0.0 1.0 0.00 0.06 0.04 68 1006.4
20260905042003 61 225 0.0 1.0 0.00 0.06 0.04 68 1006.3
20260905041504 61 315 0.0 1.0 0.00 0.06 0.04 69 1006.4
20260905041004 61 315 0.0 1.0 0.00 0.06 0.04 70 1006.1
20260905040504 61 0 0.0 0.0 0.00 0.06 0.04 70 1006.0
20260905040004 61 270 0.0 1.0 0.00 0.06 0.04 70 1006.0
20260905035503 61 270 0.0 1.0 0.00 0.06 0.04 70 1006.0
20260905035003 61 0 0.0 0.0 0.00 0.06 0.04 70 1005.7
20260905034503 62 247 0.0 1.0 0.00 0.06 0.04 70 1005.5
20260905034214 62 247 0.0 1.0 0.00 0.06 0.04 70 1005.6
20260905033504 62 292 0.0 1.0 0.00 0.06 0.04 70 1005.4
20260905033004 62 232 0.0 2.0 0.00 0.06 0.04 70 1005.2
20260905032503 62 233 0.0 2.0 0.00 0.06 0.04 70 1005.1
20260905032004 62 276 0.0 1.0 0.00 0.06 0.04 71 1005.2
20260905031503 62 278 0.0 1.0 0.00 0.06 0.04 72 1005.3
20260905031003 62 270 0.0 1.0 0.00 0.06 0.04 72 1005.0
20260905030504 62 240 0.0 2.0 0.00 0.06 0.04 73 1005.0
20260905030004 62 235 0.0 2.0 0.00 0.06 0.04 74 1004.8
20260905025504 62 266 0.0 1.0 0.00 0.06 0.04 75 1005.1
20260905025004 62 260 0.0 1.0 0.00 0.06 0.04 77 1004.7
20260905024717 62 257 0.0 1.0 0.00 0.06 0.04 78 1004.9
20260905024003 62 225 0.0 2.0 0.00 0.06 0.04 81 1004.6
20260905023713 62 254 0.0 3.0 0.00 0.06 0.04 81 1004.9
20260905023004 62 263 0.0 3.0 0.00 0.06 0.04 83 1005.0
20260905022504 62 225 0.0 1.0 0.00 0.06 0.04 84 1004.8
20260905022004 62 225 0.0 1.0 0.00 0.06 0.04 85 1004.6
20260905021504 62 241 0.0 1.0 0.02 0.06 0.04 85 1004.4
20260905021003 62 250 0.0 1.0 0.02 0.06 0.04 86 1004.4
20260905020503 62 0 0.0 0.0 0.04 0.06 0.04 87 1004.3
20260905020003 62 0 0.0 0.0 0.04 0.06 0.04 87 1004.3
20260905015503 62 247 0.0 1.0 0.04 0.06 0.04 87 1004.3
20260905015004 62 234 0.0 1.0 0.04 0.06 0.04 88 1004.1
20260905014504 63 258 0.0 2.0 0.04 0.06 0.04 89 1004.0
20260905014004 63 270 0.0 2.0 0.04 0.06 0.04 89 1004.1
20260905013504 63 282 1.0 8.0 0.04 0.06 0.04 89 1004.1
20260905013003 63 268 4.0 14.0 0.04 0.06 0.04 89 1004.1
20260905012503 63 270 5.0 14.0 0.04 0.06 0.04 89 1004.0
20260905012003 63 281 2.0 11.0 0.02 0.05 0.02 88 1003.9
20260905011504 63 0 0.0 0.0 0.01 0.04 0.01 87 1004.1
20260905011004 63 0 0.0 0.0 0.01 0.04 0.01 86 1003.6
20260905010504 63 0 0.0 0.0 0.00 0.02 0.00 85 1003.6
20260905010004 63 0 0.0 0.0 0.00 0.02 0.00 84 1003.5
20260905005717 63 0 0.0 0.0 0.00 0.02 0.00 84 1003.4
20260905005004 63 0 0.0 0.0 0.00 0.02 0.00 83 1003.4
20260905004503 63 0 0.0 0.0 0.00 0.02 0.00 83 1003.5
20260905004005 63 0 0.0 0.0 0.00 0.02 0.00 82 1003.5
20260905003714 63 0 0.0 0.0 0.00 0.02 0.00 82 1003.7
20260905003004 64 180 0.0 1.0 0.00 0.02 0.00 77 1003.6
20260905002504 64 180 0.0 1.0 0.00 0.02 0.00 76 1003.6
20260905002004 64 0 0.0 0.0 0.00 0.02 0.00 75 1003.7
20260905001503 64 0 0.0 0.0 0.00 0.02 0.00 75 1003.6
20260905001004 64 0 0.0 0.0 0.00 0.02 0.00 75 1003.6
20260905000504 64 0 0.0 0.0 0.00 0.04 0.00 75 1003.5
20260905000215 64 0 0.0 0.0 0.00 0.04 0.00 75 1003.4
20260904235503 64 225 0.0 2.0 0.00 0.04 0.00 76 1003.7
20260904235004 64 270 0.0 1.0 0.00 0.04 0.00 76 1003.5
20260904234503 64 270 0.0 1.0 0.00 0.04 0.00 76 1003.8
20260904234003 64 0 0.0 0.0 0.00 0.04 0.00 76 1003.7
20260904233503 64 225 0.0 1.0 0.00 0.04 0.00 76 1003.8
20260904233003 64 270 0.0 1.0 0.00 0.04 0.00 76 1003.8
20260904232504 64 297 0.0 1.0 0.00 0.04 0.00 76 1003.5
20260904232004 64 315 0.0 1.0 0.00 0.04 0.00 76 1003.5